Flag for Argentina Weather past 2 weeks in Buenos Aires, Argentina

Now
59 °F

Clear.


Feels Like: 55 °F
Forecast: 56 / 66 °F
Wind: 21 mph from Southeast

Location: Buenos Aires Airport

Current Time: Aug 4, 2015 at 9:17:15 PM

Latest Report: Aug 4, 2015 at 8:00 PM


Visibility: 10 mi

Pressure: 30.07 "Hg

Humidity: 68%

Dew point: 48 °F

Location of Buenos AiresLocation

Historic Weather in Buenos Aires — Graph

°F

Buenos Aires temperature yesterday

Maximum temperature yesterday: 70 °F (at 3:00 PM)
Minimum temperature yesterday: 55 °F (at 3:00 AM)
Average temperature yesterday: 61 °F

Past Weeks' High & Low Weather Summary

 TemperatureHumidityPressure
High72 °F (Jul 28, 4:00 PM)100% (Jul 30, 3:00 PM)30.33 "Hg (Jul 30, 3:00 PM)
Low43 °F (Jul 21, 4:00 AM)26% (Aug 3, 2:00 PM)29.65 "Hg (Jul 31, 5:00 AM)
Average57 °F77%30.06 "Hg
* Reported Jul 20 8:00 PM — Aug 4 8:00 PM, Buenos Aires, Weather by CustomWeather, © 2015

Note: Actual official high and low records may vary slightly from our data, if they occured in-between our weather recording intervals... More about our weather records

Advertising

Buenos Aires weather history for previous 24 hours

 ConditionsComfort  
Time TempWeatherWind HumidityBarometerVisibility
8:00 PM
Tue, Aug 4
59 °FClear.21 mph68%30.07 "Hg10 mi
7:00 PM59 °FClear.18 mph68%30.09 "Hg10 mi
6:00 PM59 °FClear.20 mph68%30.09 "Hg10 mi
5:00 PM59 °FSunny.18 mph68%30.09 "Hg10 mi
4:00 PM59 °FSunny.24 mph72%30.07 "Hg10 mi
3:00 PM59 °FSunny.23 mph72%30.09 "Hg10 mi
2:00 PM59 °FSunny.21 mph72%30.12 "Hg10 mi
1:00 PM59 °FSunny.18 mph68%30.15 "Hg10 mi
12:00 PM59 °FSunny.17 mph72%30.18 "Hg10 mi
11:00 AM59 °FScattered clouds.20 mph82%30.15 "HgN/A
10:00 AM57 °FScattered clouds.21 mph94%30.15 "HgN/A
9:00 AM55 °FFog.13 mph63%30.15 "Hg1 mi
8:00 AM55 °FSunny.10 mph67%30.15 "Hg10 mi
7:00 AM54 °FSunny.12 mph58%30.12 "Hg10 mi
6:00 AM54 °FClear.9 mph63%30.12 "Hg10 mi
5:00 AM55 °FPassing clouds.7 mph51%30.12 "HgN/A
4:00 AM54 °FPassing clouds.6 mph63%30.12 "HgN/A
3:00 AM54 °FClear.3 mph67%30.15 "Hg10 mi
2:00 AM55 °FPassing clouds.5 mph63%30.15 "HgN/A
1:00 AM55 °FPassing clouds.3 mph67%30.15 "HgN/A
12:00 AM59 °FPassing clouds.5 mph68%30.15 "HgN/A
11:00 PM
Mon, Aug 3
57 °FClear.3 mph67%30.15 "Hg10 mi
10:00 PM59 °FClear.No wind63%30.12 "Hg10 mi
9:00 PM61 °FPassing clouds.5 mph59%30.12 "HgN/A
Weather by CustomWeather, © 2015

See weather overviewHow to use our weather pages